Regional Weather Roundup
Issued by NWS Bismarck, ND

Home | Current Version | Previous Version | Text Only | Print | Product List | Glossary On
Versions: 1 2 3 4 5 6 7 8 9 10 11 12 13 14 15 16 17 18 19 20 21 22 23 24 25 26 27 28 29 30 31 32 33 34 35 36 37 38 39 40 41 42 43 44 45 46 47 48 49 50
000
ASUS43 KBIS 210920
RWRBIS

NWR BROADCAST TEXT
NATIONAL WEATHER SERVICE BISMARCK ND
400 AM CDT TUE OCT 21 2014

NOTE: "FAIR" INDICATES FEW OR NO CLOUDS BELOW 12,000 FEET WITH NO
SIGNIFICANT WEATHER AND/OR OBSTRUCTIONS TO VISIBILITY.


CITY           SKY/WX    TMP DP  RH WIND       PRES   REMARKS
WILLISTON      CLEAR     39  36  89 CALM      29.78F
MINOT          CLEAR     51  34  52 SE10      29.85F
MINOT AFB      CLEAR     41  36  84 SE9       29.85S
BISMARCK       CLEAR     54  35  48 SE10      29.88F
DICKINSON      CLEAR     42  36  79 SE9       29.80F
GARRISON         N/A     50  36  58 SE8       29.86F
HETTINGER ARPT CLEAR     43  37  79 CALM      29.83F
JAMESTOWN      CLEAR     46  38  73 SE12      29.98F
BEACH            N/A     43  41  93 S3        29.80S
CARRINGTON     FAIR      45  43  93 SE17G24   29.97S
CROSBY         FAIR      50  41  71 S14       29.78S
HARVEY         FAIR      43  39  87 SE8       29.92F
HAZEN          FAIR      54  32  43 SE10G17   29.85F
LINTON         FAIR      52  36  54 SE22G29   29.88F
MANDAN         FAIR      57  34  41 SE24G33   29.87F
OAKES            N/A     41  39  93 E8        30.01F
RUGBY          FAIR      46  39  76 SE13G21   29.91F
STANLEY        FAIR      43  37  81 E7        29.83F
TIOGA          FAIR      46  41  81 NE5       29.84F
$$

CITY           SKY/WX    TMP DP  RH WIND       PRES   REMARKS
GRAND FORKS    CLEAR     39  36  89 SE9       30.04F
GRAND FORKS AF CLEAR     38  38  99 S8        30.04F
DEVILS LAKE    CLEAR     46  36  66 SE15      29.95F
FARGO          CLEAR     45  38  76 SE15      30.05F
CANDO          FAIR      45  39  81 SE12      29.96F
CAVALIER       FAIR      39  36  87 S6        30.03S
GRAFTON        FAIR      36  36 100 SE8       30.04S
GWINNER        SUNNY     41  36  81 SE8       30.04S
LANGDON        FAIR      41  36  81 SE15      29.98S
ROLLA          FAIR      41  41 100 S9        29.96S
WALHALLA       FAIR      41  39  93 S12G18    30.01F
$$

CITY           SKY/WX    TMP DP  RH WIND       PRES   REMARKS
ABERDEEN       CLEAR     45  38  76 SE8       29.99F
MOBRIDGE       CLEAR     55  37  50 SE14      29.85F
BUFFALO          N/A     49  40  71 CALM      29.75F
RAPID CITY     CLEAR     51  41  68 SE9       29.85F
GLASGOW        CLEAR     49  37  63 E12       29.70F
SIDNEY         CLEAR     39  34  81 CALM      29.78F
WOLF POINT     CLEAR     39  35  86 E5        29.74S
GLENDIVE       CLEAR     45  37  76 N7        29.77F
MILES CITY     CLEAR     46  38  73 CALM      29.75F
BAKER          CLEAR     44  39  82 SE9       29.79F
$$

CITY           SKY/WX    TMP DP  RH WIND       PRES   REMARKS
BILLINGS       CLEAR     55  28  35 SW13      29.77F
GREAT FALLS    CLEAR     61  34  36 S14       29.67F
REGINA         CLEAR     45  41  87 SE13      29.72S
ESTEVAN        CLEAR     48  39  71 SE9       29.78F
$$



USA.gov is the U.S. government's official web portal to all federal, state and local government web resources and services.